RH
21 20 19 18 17 16 16 16 16 16 17 17 18 18 19 18 18 17 16 15 15 14 13 12 12 12 12 11 11 10 10 10 10 10 9 9 9 8 8 8 7 8 8 8 8 8 9 9 8 8 8 7 8 8 7 8 7 7 7 7 7 7 7
19 19 19 19 20 20 20 20 20 19 19 19 19 19 18 17 17 16 16 15 15 15 14 13 12 12 12 11 11 11 10 10 10 10 10 9 9 9 8 8 8 8 9 9 9 9 9 9 9 8 8 7 7 7 6 6 6 6 6 6 7 7 7
23 24 25 26 26 24 23 22 20 19 18 18 18 18 18 17 18 18 18 18 17 17 16 15 13 13 12 11 11 11 10 10 9 9 9 9 9 9 8 8 9 8 9 9 9 10 10 10 10 9 8 7 7 6 5 5 5 5 6 6 7 7 7
27 27 28 28 27 25 23 22 21 21 21 21 22 22 21 21 21 21 20 20 19 18 16 15 15 14 13 12 11 11 10 9 9 9 9 9 9 9 9 9 9 9 9 9 10 10 10 10 10 9 9 8 7 7 6 5 5 5 6 6 6 6 6
27 27 28 29 29 29 28 28 27 27 28 28 27 27 26 25 24 23 22 20 19 18 16 15 14 13 13 12 12 12 11 10 10 9 10 10 10 10 9 9 9 9 9 9 9 10 10 10 10 9 9 9 8 7 7 6 5 5 5 5 5 5 5
34 33 34 36 37 38 37 36 35 35 35 33 32 31 29 27 26 24 22 20 18 17 15 14 13 13 13 13 13 13 13 12 12 12 11 11 11 11 10 10 10 9 9 9 9 9 10 10 10 10 10 9 8 7 7 6 6 5 5 5 5 6 5
45 44 44 45 45 45 44 43 41 40 39 37 35 33 31 29 27 24 21 19 17 15 14 13 12 13 13 13 14 14 14 14 14 14 13 13 12 11 11 10 10 9 9 9 9 10 10 10 10 10 9 8 8 7 7 6 6 6 6 6 6 6 6
50 48 47 48 48 48 47 46 45 44 42 40 38 35 33 29 26 23 19 17 15 13 13 13 13 13 14 14 14 14 14 14 14 14 14 13 13 12 11 10 10 10 10 10 10 10 10 10 10 9 9 8 7 7 7 7 6 7 7 6 6 6 6
50 49 47 47 47 47 47 46 46 45 42 40 37 34 31 27 23 20 17 15 15 14 14 14 14 15 15 15 15 14 14 14 14 14 14 13 12 11 11 10 10 11 10 10 10 10 10 10 10 10 9 9 8 7 7 7 7 7 6 7 6 6 6
52 51 49 48 47 46 46 45 44 42 39 36 32 28 25 21 19 17 16 16 16 16 16 16 15 15 16 16 15 14 14 14 14 14 14 13 12 11 11 10 10 10 10 10 10 10 11 11 11 11 10 10 9 8 8 7 7 7 6 6 6 6 6
53 52 49 48 46 45 44 42 39 36 32 28 24 21 19 17 17 17 17 18 18 18 17 17 17 17 16 16 15 14 14 14 14 14 13 12 11 10 10 10 10 10 9 10 10 10 11 11 11 11 10 10 10 9 8 8 7 7 7 6 6 6 6
52 50 48 46 43 41 38 35 31 27 23 21 18 17 17 17 17 18 18 19 18 18 18 17 17 17 16 15 14 14 14 14 13 12 11 10 9 9 9 9 9 9 9 10 10 10 10 10 10 10 10 10 9 9 8 7 7 7 7 6 6 6 6
48 46 43 39 35 32 28 25 22 20 18 18 18 18 18 18 19 19 19 18 18 17 16 16 16 16 15 15 14 14 13 12 12 11 10 9 8 8 9 9 9 9 10 10 10 9 9 8 8 8 8 8 8 8 7 7 6 6 6 6 6 5 5
39 36 32 28 25 23 22 21 20 20 20 20 20 19 19 19 18 18 17 17 16 16 15 15 16 16 15 15 14 13 12 12 11 11 9 9 8 9 9 9 9 9 9 8 8 8 7 7 7 7 7 7 6 6 6 6 6 6 5 6 5 5 5
27 25 23 22 21 21 22 23 22 22 22 21 20 18 18 18 18 17 17 17 16 16 16 16 16 16 15 14 13 13 12 12 11 10 9 8 8 8 8 8 8 8 8 7 6 6 6 6 6 6 6 6 6 6 6 5 5 5 5 5 5 4 4
21 21 21 21 21 21 22 23 22 22 21 19 18 17 16 17 18 17 17 17 16 16 15 15 15 14 14 13 13 12 11 11 10 9 8 8 7 7 7 7 8 7 7 6 6 6 6 5 6 6 5 6 6 5 5 5 5 5 5 4 4 5 5
21 22 22 22 21 21 21 21 20 19 18 18 17 16 14 15 16 17 16 16 15 14 14 14 13 13 13 12 12 12 11 10 9 8 7 7 7 7 7 7 7 6 6 6 5 5 5 5 5 5 5 5 5 5 4 5 5 5 4 5 5 5 6
21 21 21 21 20 19 19 19 18 18 17 17 16 15 13 13 13 15 15 15 14 14 13 13 13 13 12 12 11 11 10 9 8 7 7 7 6 6 7 6 6 6 5 5 5 5 5 5 5 5 5 5 4 4 4 5 5 5 5 5 6 6 7
20 20 19 19 19 19 18 18 18 17 16 16 15 15 13 12 12 13 14 15 14 14 13 14 13 13 12 11 10 9 8 8 7 7 6 6 6 7 7 7 6 6 5 5 5 5 5 5 5 5 5 5 5 4 5 5 5 6 6 6 7 7 7
19 19 19 19 19 19 19 18 18 17 16 16 16 15 14 12 12 13 14 14 14 13 13 12 12 11 10 9 8 7 7 7 6 6 6 6 7 7 7 7 6 6 5 5 5 5 5 5 5 5 5 5 5 5 5 6 6 6 7 7 7 7 7
19 19 20 19 20 20 19 18 18 18 17 16 16 16 14 12 11 12 13 13 12 11 10 10 9 9 8 8 8 7 7 7 6 6 6 6 7 7 6 6 6 6 5 5 5 5 5 5 5 5 6 6 6 6 6 7 7 6 6 7 6 6 6
19 19 19 19 19 20 20 19 18 18 18 17 15 15 13 10 9 9 9 9 9 8 8 8 8 8 8 8 8 7 7 7 6 6 6 6 6 6 6 6 6 6 6 5 6 6 6 6 6 5 6 6 6 7 7 6 6 5 5 5 5 5 5
18 18 18 18 18 19 19 18 17 16 15 14 12 11 10 8 7 7 7 7 7 7 8 8 8 8 8 7 7 7 7 7 6 6 5 5 5 5 5 6 6 6 7 7 7 7 7 7 7 6 6 6 6 6 5 4 4 5 5 5 4 4 5
16 16 16 15 15 14 14 14 13 11 10 10 9 8 8 7 6 6 6 6 7 7 7 7 7 7 7 7 7 7 7 7 6 6 5 5 5 6 6 7 7 7 8 9 9 9 9 8 7 6 5 6 5 5 4 4 4 4 4 4 4 5 4
12 12 11 11 10 10 9 9 9 9 8 8 7 7 7 7 6 6 5 6 6 6 6 6 6 6 6 7 7 7 7 7 7 7 7 7 7 7 7 7 8 8 9 9 9 9 9 8 6 6 5 5 4 4 4 4 4 4 4 4 5 5 5
8 8 8 8 8 8 8 8 8 8 8 7 7 6 6 6 6 5 5 5 5 6 6 6 6 6 7 7 8 8 8 9 9 9 9 8 8 8 8 8 8 7 7 7 7 7 7 6 6 6 5 4 4 4 4 5 4 4 5 5 4 5 5
7 7 7 7 6 7 7 7 7 7 7 6 6 6 6 6 6 5 5 5 5 5 6 7 7 8 8 9 9 9 9 9 9 9 9 8 7 7 7 6 6 6 6 6 6 5 5 5 5 5 5 4 5 5 4 5 5 5 5 5 4 5 4
6 6 6 6 6 6 6 6 6 7 7 7 6 6 6 6 6 7 7 6 6 7 7 8 9 9 9 9 9 8 8 7 7 7 6 7 6 6 5 5 5 5 5 5 5 5 5 5 5 5 5 5 5 5 4 5 5 5 5 5 4 5 4
5 5 5 5 5 6 6 6 6 7 7 8 8 7 8 8 8 8 8 7 7 7 7 7 7 7 7 6 6 6 6 5 6 5 5 6 6 5 5 5 4 5 5 5 5 4 4 5 5 5 5 5 5 5 5 5 5 5 5 5 4 5 4
6 6 6 7 7 7 8 8 8 8 8 8 8 7 7 7 7 7 7 6 6 6 5 5 5 5 5 5 4 5 5 5 5 5 5 5 6 5 5 5 4 5 5 4 5 5 4 5 5 5 5 5 5 5 5 5 5 5 5 4 4 4 4
7 7 7 7 6 7 7 7 7 6 6 6 6 6 5 5 5 5 5 4 4 5 4 5 5 4 4 4 4 5 5 5 5 5 5 5 5 5 5 5 4 4 4 5 5 4 4 4 4 5 5 4 5 5 4 4 4 4 4 4 4 4 4
6 5 5 5 5 5 5 5 5 5 4 4 5 5 4 4 4 4 4 4 4 4 5 4 4 4 4 4 4 5 5 5 5 4 4 5 5 5 5 5 4 4 4 4 4 4 4 4 4 4 5 4 4 5 4 4 4 4 4 4 4 5 5
4 4 4 4 4 4 4 4 4 4 4 4 4 4 4 4 4 4 4 4 4 4 4 4 4 4 4 4 4 4 4 4 4 4 4 4 4 5 4 4 4 4 4 4 4 4 4 4 4 4 5 4 5 5 4 4 5 5 5 5 5 5 5
4 4 4 4 4 4 4 4 4 4 4 4 4 4 4 4 4 4 4 4 4 4 4 4 4 4 4 4 4 4 4 4 4 4 4 4 4 4 4 4 4 4 4 4 4 4 4 4 4 5 5 5 5 5 5 5 5 5 5 5 5 5 5
4 4 4 4 4 4 4 4 4 4 4 4 4 4 4 4 4 4 4 4 4 4 4 4 4 4 4 4 4 4 4 4 4 4 4 4 4 4 5 5 4 4 4 5 5 5 5 5 5 5 5 5 5 5 5 5 5 5 5 5 5 5 5
5 5 4 4 4 4 4 4 4 4 4 4 4 4 4 4 4 4 4 4 4 4 4 4 4 4 4 4 4 5 5 4 5 5 4 4 5 5 5 5 5 4 5 5 5 5 5 5 5 5 5 5 5 5 5 5 5 5 5 5 5 5 5
Wind_Speed
105 105 105 105 105 106 106 105 105 105 105 104 104 105 105 106 106 106 106 106 107 107 108 108 108 109 110 110 110 110 109 110 110 110 111 111 111 111 111 111 110 109 108 108 109 109 109 110 110 110 110 109 108 108 108 108 109 109 109 110 110 111 112
104 103 103 103 104 104 104 104 104 104 104 103 103 103 104 105 105 105 106 106 106 107 108 108 108 108 108 109 109 109 109 109 110 110 111 111 111 111 110 110 109 108 107 107 108 108 108 109 109 109 109 109 108 108 107 107 107 107 107 107 107 108 110
102 102 102 102 103 104 104 104 104 103 103 103 103 103 103 104 104 105 105 106 106 107 107 108 108 108 108 108 108 108 109 109 109 110 110 110 110 110 109 109 108 107 107 106 106 107 107 107 108 109 109 109 109 108 107 106 105 104 104 104 105 106 107
100 100 101 101 102 103 103 103 104 103 103 103 103 104 104 104 104 105 105 106 106 107 107 107 107 108 108 108 108 108 109 109 109 109 109 109 109 109 108 108 107 107 106 105 105 105 106 106 107 107 108 109 109 109 108 107 105 104 103 103 104 105 106
99 100 100 100 101 102 103 104 104 104 104 104 104 104 104 105 105 105 106 106 106 107 107 107 107 107 107 107 108 108 109 109 109 109 109 108 108 108 108 108 107 107 106 105 104 104 105 106 106 107 107 108 109 109 109 108 106 105 103 103 103 104 104
100 100 100 100 101 102 103 104 104 104 105 105 105 105 105 106 106 106 107 107 107 107 107 107 106 107 107 107 107 108 109 109 109 109 109 109 109 108 108 108 107 107 106 105 104 104 105 105 106 107 108 109 109 109 109 108 106 105 104 103 103 103 103
100 100 101 101 101 102 103 104 105 105 105 106 106 106 107 107 107 108 108 107 107 107 107 107 106 106 106 106 107 108 109 109 109 109 109 110 109 109 108 108 107 106 105 104 104 104 105 106 107 107 108 109 109 109 108 107 105 104 103 103 102 102 103
100 102 102 102 102 103 104 105 105 106 106 107 107 108 108 108 108 109 109 108 108 108 108 107 106 106 106 107 107 108 109 109 109 110 110 110 110 109 109 108 107 106 105 105 104 105 105 106 107 107 108 108 108 107 106 105 104 103 103 103 102 102 103
102 103 104 104 104 104 105 106 106 107 108 108 108 109 109 109 109 109 109 109 109 108 108 108 107 107 107 108 108 109 109 109 109 110 110 110 110 110 108 107 106 106 106 105 105 105 106 106 106 107 107 107 107 106 105 105 104 103 102 102 102 102 104
103 104 105 105 105 106 106 107 107 108 109 109 110 110 110 110 110 109 109 109 109 109 109 109 108 108 108 109 109 109 109 109 109 109 110 110 110 109 108 107 106 106 106 105 105 104 105 105 105 105 106 106 106 106 105 105 104 104 103 102 101 101 103
105 106 106 107 107 107 107 108 108 109 110 110 110 110 110 110 109 109 109 109 109 110 109 109 109 109 109 109 109 109 108 109 109 109 110 110 109 108 107 106 105 105 105 104 103 103 103 103 103 103 104 104 105 105 105 104 104 104 103 101 100 100 101
106 107 107 108 108 108 108 109 110 110 110 110 110 110 110 110 109 109 110 110 110 110 110 109 109 109 109 109 108 108 108 108 109 109 109 109 108 107 106 105 104 103 103 103 103 103 102 102 101 101 101 102 103 104 103 103 103 102 101 100 99 98 98
107 108 108 109 109 109 109 110 110 110 110 110 111 111 111 110 110 110 110 110 110 110 109 109 108 108 108 108 108 108 108 109 109 109 109 108 107 106 105 104 103 102 102 102 102 102 101 101 99 99 99 100 101 101 101 101 100 100 99 97 96 95 95
108 108 109 109 109 109 109 110 110 110 111 111 111 111 111 111 111 110 110 109 109 109 108 108 108 108 109 109 109 109 109 109 109 109 109 108 106 105 103 102 101 101 101 100 100 100 99 98 98 97 98 98 99 98 98 98 97 96 95 94 93 93 92
108 108 108 109 109 109 109 110 110 111 111 111 112 111 111 110 110 110 109 109 109 108 108 108 108 109 109 109 109 109 109 109 109 109 108 106 104 103 101 100 99 100 100 100 99 98 97 96 96 96 96 96 96 96 95 94 93 92 92 91 90 89 90
108 108 108 108 108 109 109 110 111 111 111 111 112 111 110 109 109 110 109 109 108 108 108 109 109 109 109 109 109 109 109 109 108 107 106 104 102 101 99 98 99 100 100 99 98 97 96 95 94 94 94 94 94 93 92 91 90 89 89 88 87 87 87
107 107 108 108 109 109 109 110 110 111 111 111 111 111 110 108 107 108 109 109 108 108 109 109 109 109 109 108 108 108 108 108 107 105 104 103 101 100 99 98 99 100 99 97 97 96 95 94 93 92 92 92 92 91 90 89 88 87 87 86 86 85 85
107 108 108 108 109 109 109 109 109 110 110 110 110 111 110 108 107 107 108 109 109 109 109 109 109 109 108 108 108 107 107 106 105 104 103 102 101 100 99 99 100 99 97 96 95 94 93 92 91 91 90 90 90 89 88 88 87 86 86 85 84 84 84
107 107 107 107 108 108 108 108 109 110 110 110 110 111 111 109 107 107 108 109 109 108 108 108 109 108 108 108 107 107 106 106 105 103 103 102 101 100 99 100 100 98 96 95 94 93 91 90 90 90 90 89 89 88 88 88 86 85 84 84 84 83 83
106 106 107 107 107 108 109 109 109 110 110 110 111 112 112 111 108 108 108 108 108 108 108 108 108 108 108 107 107 106 106 105 104 103 102 101 100 99 98 99 98 97 95 94 93 92 90 90 89 89 89 88 88 87 87 87 86 85 83 83 83 83 83
106 107 107 108 108 109 109 110 110 111 111 111 112 112 113 112 109 108 107 107 107 107 107 107 108 108 107 107 106 106 105 104 103 102 101 100 98 97 97 96 96 95 94 94 92 91 91 90 89 89 88 88 87 86 86 87 86 84 83 82 82 83 83
107 108 108 108 108 109 110 111 111 111 112 112 112 113 113 112 110 108 106 106 106 106 106 107 107 107 106 106 105 105 104 104 103 102 101 99 97 96 95 95 95 94 93 93 92 91 91 91 90 89 87 87 86 86 86 86 85 84 83 82 82 82 82
108 108 108 108 108 109 110 111 112 112 112 112 112 112 113 112 111 107 105 104 104 104 105 105 105 105 104 104 103 104 103 103 102 101 100 99 97 95 94 94 94 93 92 92 91 91 91 91 91 90 88 86 86 86 87 86 84 83 83 83 82 82 82
108 109 109 109 109 109 109 110 111 112 112 112 111 111 111 111 110 107 104 103 103 103 103 103 103 102 102 101 101 102 102 102 101 101 100 98 97 95 95 94 93 92 91 90 90 90 91 91 91 90 89 87 88 87 87 85 83 83 83 82 82 82 82
108 108 108 108 108 109 108 108 109 111 111 111 110 110 110 110 109 107 104 102 102 102 102 102 101 100 100 99 100 100 101 101 100 100 100 99 97 95 94 93 92 91 90 89 90 90 90 91 91 90 89 89 88 87 86 85 84 83 82 82 81 81 82
106 107 107 106 106 107 107 107 107 109 110 110 108 108 108 108 108 107 104 102 101 101 101 101 100 99 98 98 99 99 99 99 98 98 98 98 96 95 94 93 92 91 90 89 89 89 89 89 89 89 90 89 87 86 85 84 84 83 82 82 82 81 82
104 104 105 105 104 104 104 104 105 106 108 108 107 106 106 106 106 106 105 103 101 100 99 99 99 98 98 98 98 98 98 97 96 96 96 96 96 95 93 92 91 91 90 89 89 88 87 86 87 87 88 87 87 86 85 84 83 82 82 82 81 81 82
102 102 102 102 102 102 102 102 102 103 105 105 105 104 104 104 104 104 104 103 101 99 98 97 97 97 97 97 97 97 97 96 95 94 93 94 94 94 93 91 89 89 89 89 88 87 86 85 85 85 85 85 85 85 84 83 82 82 82 81 81 80 80
100 100 100 99 99 100 101 101 100 100 101 102 103 103 102 102 102 102 102 102 101 99 98 97 97 96 96 96 95 95 95 94 93 92 91 91 91 92 92 91 89 88 88 88 87 86 85 84 84 84 84 83 83 83 82 82 81 81 81 80 79 78 78
99 99 98 98 97 98 99 100 100 99 99 100 101 101 101 100 100 100 100 100 99 98 97 96 96 95 95 94 93 92 91 91 91 91 90 90 89 90 90 90 89 87 87 87 86 85 84 83 83 82 82 81 81 80 80 80 80 80 79 78 77 76 76
98 97 97 97 97 97 97 98 98 98 98 98 98 99 99 99 98 97 97 96 95 94 94 94 94 93 93 92 91 90 89 89 89 90 90 89 88 88 88 88 87 87 86 86 85 84 83 82 81 80 79 79 78 78 78 78 78 78 77 76 75 74 74
97 96 96 96 95 95 95 95 96 96 96 95 95 95 96 96 96 95 94 93 93 93 92 92 92 91 91 90 90 89 88 88 88 88 88 88 87 87 86 86 85 85 84 84 83 82 81 79 78 78 77 77 77 77 77 77 76 75 74 74 73 72 72
94 94 94 94 93 93 93 92 93 93 94 94 93 93 93 94 94 93 92 91 91 92 92 91 90 90 89 89 88 88 87 86 86 86 86 86 85 85 84 83 82 82 82 81 81 80 79 77 76 76 75 75 75 76 75 75 74 73 72 72 71 70 70
91 91 92 92 92 91 91 90 90 91 92 92 92 91 91 91 91 91 91 90 89 90 90 89 88 87 87 87 86 85 84 84 84 84 83 83 82 82 81 81 79 78 78 78 78 78 77 76 74 73 73 74 74 74 73 72 71 70 70 70 69 68 67
90 89 89 89 90 90 89 88 88 89 89 90 90 89 89 88 87 88 88 88 87 87 87 87 86 84 84 83 83 82 81 81 81 81 80 80 79 79 79 79 78 76 75 75 75 75 75 73 72 72 71 71 72 71 71 69 69 68 68 68 67 66 65
89 88 88 87 87 87 87 86 86 86 86 86 86 86 86 85 85 84 85 85 84 83 84 84 84 83 81 80 80 79 79 78 78 79 78 77 77 76 77 77 76 75 73 72 73 73 72 71 70 70 70 69 69 69 68 67 66 67 66 66 65 64 64
Wind_Direction
273 273 273 274 274 274 275 275 275 275 275 275 275 276 276 276 277 277 277 277 277 277 277 277 277 277 277 278 278 278 278 278 278 278 277 277 277 277 277 278 278 278 278 278 278 278 277 277 277 276 275 275 274 273 273 272 272 272 272 273 273 273 273
273 273 274 274 274 274 274 275 275 275 275 275 276 276 276 276 276 277 277 277 277 277 277 277 277 277 278 278 278 278 278 278 277 277 277 277 277 277 278 278 278 278 278 278 278 278 278 278 277 277 276 276 275 274 273 273 272 272 272 273 273 273 273
273 274 274 275 275 275 275 275 275 276 276 276 276 276 276 276 277 277 277 277 277 278 278 278 278 278 278 278 278 278 277 277 277 277 277 277 277 277 278 278 278 278 278 278 278 278 278 278 278 278 278 277 277 276 275 274 273 273 273 273 274 274 274
273 274 274 274 275 275 275 276 276 276 276 276 276 276 276 276 276 277 277 277 277 277 278 278 278 278 278 278 278 278 278 277 277 277 277 278 278 278 278 279 279 279 279 279 279 279 279 279 279 279 279 278 278 277 277 276 275 275 275 275 275 274 274
273 273 273 274 274 275 275 276 276 276 276 276 276 276 277 277 277 277 277 277 277 277 278 278 278 278 278 278 279 279 279 278 278 279 279 279 279 280 280 280 280 280 279 279 279 279 279 279 279 279 279 279 279 278 278 278 278 277 277 276 276 275 275
273 273 274 274 274 275 275 276 276 276 276 277 277 277 277 277 277 277 277 277 277 277 278 278 278 278 278 279 279 279 279 279 280 280 280 280 280 280 280 280 280 280 280 280 280 280 280 280 280 279 279 279 279 279 279 279 279 279 278 277 277 276 276
274 274 274 275 275 275 275 276 276 277 277 277 277 277 277 277 277 277 278 278 278 278 278 278 278 278 279 279 279 279 279 280 280 280 281 281 281 280 280 280 280 280 280 280 280 280 280 280 279 279 279 279 279 279 279 279 279 279 278 278 277 277 276
274 274 275 275 275 275 276 276 276 277 277 277 277 277 277 278 278 278 278 278 278 278 279 279 279 279 279 279 279 280 280 280 280 281 281 281 281 281 280 281 281 281 281 281 281 281 280 280 280 279 279 279 279 279 279 279 279 278 278 278 278 278 277
274 275 275 275 275 275 275 276 276 276 276 277 277 277 277 278 278 278 279 279 279 279 279 279 279 280 280 280 280 280 280 281 281 281 281 281 280 280 280 281 281 281 281 281 281 281 281 280 280 280 280 279 279 279 279 279 279 279 278 278 278 278 277
274 274 275 275 275 275 275 276 276 276 276 276 277 277 277 278 278 278 279 279 279 280 280 280 280 280 280 280 280 280 280 281 281 280 280 280 280 280 280 281 281 281 281 281 281 280 280 280 279 279 279 279 279 279 279 279 279 279 278 278 278 277 277
274 274 275 275 275 276 276 276 276 276 276 277 277 278 278 278 278 279 279 279 279 280 280 280 280 280 280 280 280 280 280 280 280 280 279 279 280 280 281 281 281 281 281 281 280 280 279 278 278 278 278 278 279 278 278 278 278 278 278 278 277 277 276
274 275 275 275 276 276 276 276 277 277 277 277 278 278 278 278 279 279 279 279 279 280 280 280 280 280 280 280 280 280 280 280 280 280 280 280 280 281 281 281 281 281 281 281 280 279 278 278 277 277 277 277 277 277 277 277 277 277 277 277 276 276 275
274 275 275 276 276 276 276 277 277 277 277 278 278 278 278 278 279 279 279 279 280 280 280 280 281 281 281 281 280 280 280 280 281 281 281 281 281 282 282 282 282 281 281 280 279 278 278 277 277 276 276 276 275 275 276 276 276 276 276 276 275 275 275
274 275 275 276 276 276 277 277 277 277 277 277 278 278 278 279 279 279 280 280 280 280 281 281 281 281 281 281 281 281 282 282 282 282 281 282 282 282 282 282 281 281 280 279 278 278 277 277 277 276 276 275 275 275 275 275 275 275 275 275 275 274 274
275 275 275 276 276 276 277 277 277 277 278 278 278 279 279 280 280 280 280 281 281 281 281 281 281 281 282 282 282 282 282 282 282 281 281 282 282 282 282 282 281 281 280 279 278 278 278 278 278 277 277 276 276 275 275 275 275 275 275 275 275 274 274
275 275 276 276 276 276 277 277 277 278 278 279 279 279 279 280 280 280 281 281 281 281 281 281 281 282 282 282 282 282 282 282 282 282 282 282 282 282 282 282 282 281 280 280 279 279 279 278 278 278 277 277 277 276 276 276 276 275 275 275 275 275 274
276 276 276 277 277 277 277 278 278 278 279 279 279 279 279 279 280 280 281 281 281 282 282 282 282 282 282 282 282 282 282 282 283 283 283 283 283 283 283 283 282 281 281 281 281 281 280 280 279 278 278 278 278 278 277 277 277 276 276 276 276 275 275
276 277 277 277 278 278 278 278 279 279 279 279 279 280 280 280 280 280 281 281 282 282 282 282 282 283 283 283 283 283 283 283 283 284 284 284 284 284 284 284 282 282 282 282 281 281 281 281 280 280 280 279 279 278 278 278 278 277 277 277 276 276 276
277 278 278 278 279 279 279 279 279 280 280 280 280 281 281 281 281 281 281 282 282 282 282 283 283 283 283 283 283 284 284 284 284 284 284 284 284 285 285 284 283 283 283 282 282 282 282 281 281 281 281 280 280 280 279 279 278 278 278 278 277 277 277
279 279 279 279 280 280 280 280 280 281 281 281 281 281 281 281 281 281 282 282 282 282 283 283 283 284 284 284 284 284 284 284 284 284 284 284 285 285 284 284 283 284 284 283 283 283 283 282 282 281 281 280 280 280 279 279 279 278 278 278 277 277 277
280 280 280 280 280 280 281 281 281 281 281 281 281 281 281 281 281 281 282 282 282 283 283 283 283 284 284 284 284 284 284 284 284 284 284 284 284 284 283 283 284 284 284 284 284 284 283 283 281 281 280 280 280 280 279 279 279 278 278 278 277 277 276
280 280 280 280 280 280 281 281 281 281 281 281 281 281 281 281 281 281 281 282 282 282 283 283 283 283 284 284 284 284 284 285 284 284 284 284 283 283 284 284 284 284 284 284 284 284 283 282 281 280 280 280 280 280 279 278 278 278 278 277 277 276 276
279 279 280 280 280 280 280 280 281 281 281 281 281 281 281 281 281 281 281 282 282 282 282 282 283 283 283 284 284 284 284 284 284 284 283 283 283 284 284 284 284 284 284 284 284 283 282 282 282 281 281 281 280 279 278 278 278 278 278 277 277 276 275
279 279 279 279 279 279 279 280 280 280 280 280 281 281 281 281 281 282 282 282 282 282 282 282 282 282 283 283 283 283 283 283 283 283 284 284 284 284 283 283 283 283 283 282 282 282 282 281 281 281 281 281 280 279 279 279 279 278 277 277 276 276 275
278 279 279 279 279 279 279 280 280 280 280 280 280 281 281 282 282 282 282 282 282 282 282 282 282 282 282 282 282 282 282 282 283 283 283 283 283 283 282 282 282 282 281 281 281 280 280 280 281 281 280 280 279 279 279 279 279 278 278 277 276 276 275
278 278 279 279 279 279 279 280 280 280 280 280 281 281 281 282 282 282 282 282 281 281 281 282 282 282 282 282 281 281 281 281 281 282 282 282 282 282 282 282 281 281 281 280 279 279 279 279 279 279 279 279 279 279 279 278 278 278 278 278 277 276 276
278 278 278 279 279 279 279 279 279 279 280 280 280 280 281 281 281 282 282 282 281 281 281 281 282 282 281 281 281 280 280 280 280 280 280 281 281 281 281 280 280 280 280 279 278 278 277 277 277 277 278 279 279 279 279 278 278 278 278 277 277 277 276
278 278 278 278 279 279 279 278 278 278 279 279 279 280 280 280 281 281 281 281 282 281 281 281 281 280 280 280 280 280 280 280 280 280 280 280 280 280 280 280 279 279 278 278 278 277 277 277 277 277 277 277 278 278 278 278 278 278 277 277 277 277 277
279 279 279 279 279 279 279 278 278 278 278 278 279 279 279 280 280 280 280 281 281 281 281 281 280 279 279 279 279 279 279 280 280 280 279 279 279 279 279 279 279 278 278 278 278 278 277 277 277 277 277 277 277 278 278 278 277 277 276 276 276 277 277
279 279 279 279 279 278 278 278 278 278 278 278 279 279 279 279 279 279 279 279 280 280 280 280 280 279 279 279 279 279 279 279 279 279 278 278 278 278 278 278 278 278 278 278 278 278 277 277 277 277 277 277 277 277 277 276 276 276 276 276 276 276 276
279 279 279 279 279 278 278 278 278 278 278 278 278 278 278 278 278 278 278 279 279 279 279 279 279 279 279 279 279 279 279 278 278 278 278 277 277 277 277 278 278 278 278 278 278 277 277 278 277 277 277 277 277 276 276 275 275 275 275 276 275 275 275
279 279 279 279 279 278 278 278 278 278 278 278 278 278 278 278 279 279 279 279 279 279 279 279 279 279 279 279 279 278 278 278 277 277 277 277 277 277 277 277 277 277 277 277 277 277 277 277 277 277 277 276 276 275 275 275 275 275 275 275 275 275 275
279 279 279 279 279 278 278 278 278 278 278 278 278 278 278 278 279 279 279 279 279 279 278 278 278 278 278 278 278 278 277 277 277 277 277 277 277 277 276 276 276 276 277 277 277 277 277 276 276 276 276 275 275 275 275 275 275 275 275 275 275 275 275
280 279 280 280 280 279 279 279 279 279 279 278 278 278 278 278 278 279 278 278 278 278 278 278 277 277 277 277 277 277 277 277 277 277 276 276 277 277 276 276 276 276 276 276 276 276 276 276 276 275 275 275 275 275 275 275 275 275 275 275 275 275 275
281 280 280 280 280 280 280 279 279 279 278 278 278 278 278 277 277 277 277 277 277 277 277 278 277 277 277 277 277 277 277 277 277 277 277 276 276 276 276 276 276 276 276 276 276 276 276 276 276 275 275 275 275 275 275 275 275 275 275 275 275 275 275
281 281 280 280 279 279 279 279 279 278 278 278 278 278 278 278 278 277 277 277 277 277 277 278 278 278 277 277 277 277 277 277 277 276 276 276 276 276 276 276 276 276 276 275 275 276 276 276 276 275 275 275 275 275 275 275 275 274 274 275 275 274 274